Marfa, TX

4:05 PM CST on December 15, 2017 (GMT -0600)
Marfa Municipal

Weather History for KMRF - September, 2012

Change the Weather History Date:

Saturday, September 22, 2012

  Actual Average Record
Temperature  
Mean Temperature 66 °F -  
Max Temperature 87 °F 79 °F 89 °F (2000)
Min Temperature 46 °F 51 °F 44 °F (2013)
Cooling Degree Days 2    
Growing Degree Days 16 (Base 50)    
Moisture  
Dew Point 36 °F    
Average Humidity 39    
Maximum Humidity 76    
Minimum Humidity 13    
Precipitation  
Precipitation 0.00 in - - ()
Sea Level Pressure  
Sea Level Pressure 30.23 in    
Wind  
Wind Speed 3 mph (East)    
Max Wind Speed 17 mph    
Max Gust Speed 24 mph    
Visibility 10 miles    
Events      
Averages and records for this station are not official NWS values.
T = Trace of Precipitation, MM = Missing Value Source: NWS Daily Summary

Daily Weather History Graph

Daily Weather History Graph

Search for Another Location

Airport or City:

Trip Planner

Search our weather history database for the weather conditions in past years. The results will help you decide how hot, cold, wet, or windy it might be!

Date:

Astronomy

Sep. 22, 2012 Rise Set
Actual Time 7:44 AM CDT 7:51 PM CDT
Civil Twilight 7:20 AM CDT 8:15 PM CDT
Nautical Twilight 6:52 AM CDT 8:43 PM CDT
Astronomical Twilight 6:24 AM CDT 9:11 PM CDT
Moon 2:40 PM CDT (9/22) 12:21 AM CDT (9/22)
Length of Visible Light 12h 55m
Length of Day
12h 07m
Waxing Crescent, 49% of the Moon is Illuminated
Sep 22
Waxing Crescent
Sep 22
First Quarter
Sep 29
Full
Oct 8
Last Quarter
Oct 15
New

Hourly Weather History & Observations

Time (CDT) Temp. Dew Point Humidity Pressure Visibility Wind Dir Wind Speed Gust Speed Precip Events Conditions
12:15 AM 57.2 °F 42.8 °F 59% 30.19 in 10.0 mi Calm Calm - N/A   Clear
12:35 AM 62.6 °F 42.8 °F 48% 30.19 in 10.0 mi Calm Calm - N/A   Clear
12:55 AM 59.0 °F 42.8 °F 55% 30.19 in 10.0 mi Calm Calm - N/A   Clear
1:15 AM 59.0 °F 42.8 °F 55% 30.19 in 10.0 mi Calm Calm - N/A   Clear
1:35 AM 53.6 °F 41.0 °F 62% 30.19 in 10.0 mi Calm Calm - N/A   Clear
1:55 AM 53.6 °F 41.0 °F 62% 30.19 in 10.0 mi Calm Calm - N/A   Clear
2:15 AM 51.8 °F 41.0 °F 67% 30.18 in 10.0 mi Calm Calm - N/A   Clear
2:35 AM 51.8 °F 41.0 °F 67% 30.19 in 10.0 mi Calm Calm - N/A   Clear
2:55 AM 51.8 °F 41.0 °F 67% 30.19 in 10.0 mi Calm Calm - N/A   Clear
3:15 AM 51.8 °F 42.8 °F 71% 30.19 in 10.0 mi Calm Calm - N/A   Clear
3:35 AM 51.8 °F 42.8 °F 71% 30.19 in 10.0 mi Calm Calm - N/A   Clear
3:55 AM 51.8 °F 42.8 °F 71% 30.19 in 10.0 mi Calm Calm - N/A   Clear
4:15 AM 50.0 °F 41.0 °F 71% 30.19 in 10.0 mi Calm Calm - N/A   Clear
4:35 AM 48.2 °F 41.0 °F 76% 30.19 in 10.0 mi Calm Calm - N/A   Clear
4:55 AM 48.2 °F 41.0 °F 76% 30.19 in 10.0 mi Calm Calm - N/A   Clear
5:15 AM 50.0 °F 39.2 °F 66% 30.20 in 10.0 mi Calm Calm - N/A   Clear
5:35 AM 48.2 °F 39.2 °F 71% 30.20 in 10.0 mi Calm Calm - N/A   Clear
5:55 AM 48.2 °F 39.2 °F 71% 30.21 in 10.0 mi Calm Calm - N/A   Clear
6:15 AM 48.2 °F 39.2 °F 71% 30.21 in 10.0 mi Calm Calm - N/A   Clear
6:35 AM 48.2 °F 39.2 °F 71% 30.22 in 10.0 mi Calm Calm - N/A   Clear
6:55 AM 48.2 °F 39.2 °F 71% 30.22 in 10.0 mi Calm Calm - N/A   Clear
7:15 AM 48.2 °F 39.2 °F 71% 30.22 in 10.0 mi Calm Calm - N/A   Clear
7:35 AM 46.4 °F 37.4 °F 71% 30.23 in 10.0 mi Calm Calm - N/A   Clear
7:55 AM 46.4 °F 39.2 °F 76% 30.23 in 10.0 mi Calm Calm - N/A   Clear
8:15 AM 48.2 °F 39.2 °F 71% 30.24 in 10.0 mi Calm Calm - N/A   Clear
8:35 AM 53.6 °F 39.2 °F 58% 30.25 in 10.0 mi Calm Calm - N/A   Clear
8:55 AM 57.2 °F 41.0 °F 55% 30.25 in 10.0 mi Calm Calm - N/A   Clear
9:15 AM 60.8 °F 42.8 °F 52% 30.26 in 10.0 mi Calm Calm - N/A   Clear
9:55 AM 69.8 °F 42.8 °F 38% 30.26 in 10.0 mi Calm Calm - N/A   Clear
10:15 AM 69.8 °F 42.8 °F 38% 30.27 in 10.0 mi Calm Calm - N/A   Clear
10:35 AM 71.6 °F 44.6 °F 38% 30.27 in 10.0 mi Calm Calm - N/A   Clear
10:55 AM 73.4 °F 44.6 °F 36% 30.27 in 10.0 mi Calm Calm - N/A   Clear
11:15 AM 75.2 °F 42.8 °F 31% 30.27 in 10.0 mi Calm Calm - N/A   Clear
11:35 AM 77.0 °F 41.0 °F 28% 30.27 in 10.0 mi Calm Calm - N/A   Clear
11:55 AM 78.8 °F 39.2 °F 24% 30.27 in 10.0 mi Calm Calm - N/A   Clear
12:15 PM 80.6 °F 37.4 °F 21% 30.27 in 10.0 mi Calm Calm - N/A   Clear
12:35 PM 80.6 °F 35.6 °F 20% 30.27 in 10.0 mi Calm Calm - N/A   Clear
12:55 PM 82.4 °F 35.6 °F 19% 30.26 in 10.0 mi SE 4.6 mph - N/A   Clear
1:15 PM 84.2 °F 35.6 °F 18% 30.25 in 10.0 mi East 13.8 mph - N/A   Clear
1:35 PM 86.0 °F 33.8 °F 15% 30.25 in 10.0 mi ENE 13.8 mph 20.7 mph N/A   Clear
1:55 PM 86.0 °F 30.2 °F 13% 30.25 in 10.0 mi East 15.0 mph 20.7 mph N/A   Clear
2:15 PM 86.0 °F 32.0 °F 14% 30.25 in 10.0 mi East 15.0 mph 21.9 mph N/A   Clear
2:35 PM 86.0 °F 30.2 °F 13% 30.24 in 10.0 mi Calm Calm - N/A   Clear
2:55 PM 86.0 °F 30.2 °F 13% 30.24 in 10.0 mi East 16.1 mph 23.0 mph N/A   Clear
3:15 PM 84.2 °F 30.2 °F 14% 30.24 in 10.0 mi East 16.1 mph 21.9 mph N/A   Clear
3:35 PM 86.0 °F 30.2 °F 13% 30.23 in 10.0 mi East 11.5 mph 21.9 mph N/A   Clear
3:55 PM 87.8 °F 33.8 °F 15% 30.23 in 10.0 mi East 12.7 mph 19.6 mph N/A   Clear
4:15 PM 86.0 °F 33.8 °F 15% 30.22 in 10.0 mi Calm Calm - N/A   Clear
4:35 PM 86.0 °F 32.0 °F 14% 30.22 in 10.0 mi East 13.8 mph 24.2 mph N/A   Clear
4:55 PM 84.2 °F 32.0 °F 15% 30.21 in 10.0 mi East 13.8 mph 20.7 mph N/A   Clear
5:15 PM 84.2 °F 32.0 °F 15% 30.22 in 10.0 mi ENE 13.8 mph 23.0 mph N/A   Clear
5:35 PM 84.2 °F 30.2 °F 14% 30.21 in 10.0 mi East 17.3 mph 21.9 mph N/A   Clear
5:55 PM 84.2 °F 30.2 °F 14% 30.21 in 10.0 mi East 11.5 mph 20.7 mph N/A   Clear
6:15 PM 82.4 °F 30.2 °F 15% 30.22 in 10.0 mi East 13.8 mph 21.9 mph N/A   Clear
6:35 PM 82.4 °F 30.2 °F 15% 30.22 in 10.0 mi East 15.0 mph 18.4 mph N/A   Clear
6:55 PM 80.6 °F 30.2 °F 16% 30.22 in 10.0 mi East 12.7 mph 18.4 mph N/A   Clear
7:15 PM 80.6 °F 28.4 °F 15% 30.23 in 10.0 mi East 13.8 mph - N/A   Clear
7:35 PM 78.8 °F 28.4 °F 16% 30.23 in 10.0 mi East 12.7 mph - N/A   Clear
7:55 PM 73.4 °F 28.4 °F 19% 30.24 in 10.0 mi ESE 10.4 mph - N/A   Clear
8:15 PM 73.4 °F 26.6 °F 18% 30.24 in 10.0 mi ESE 11.5 mph - N/A   Clear
8:35 PM 69.8 °F 26.6 °F 20% 30.25 in 10.0 mi East 8.1 mph - N/A   Clear
8:55 PM 66.2 °F 28.4 °F 24% 30.26 in 10.0 mi East 6.9 mph - N/A   Clear
9:15 PM 64.4 °F 28.4 °F 26% 30.26 in 10.0 mi East 9.2 mph - N/A   Clear
9:35 PM 64.4 °F 28.4 °F 26% 30.27 in 10.0 mi East 9.2 mph - N/A   Clear
9:55 PM 62.6 °F 30.2 °F 30% 30.27 in 10.0 mi East 9.2 mph - N/A   Clear
10:15 PM 62.6 °F 30.2 °F 30% 30.28 in 10.0 mi ESE 8.1 mph - N/A   Clear
10:35 PM 62.6 °F 32.0 °F 32% 30.28 in 10.0 mi East 9.2 mph - N/A   Clear
10:55 PM 60.8 °F 32.0 °F 34% 30.29 in 10.0 mi ENE 8.1 mph - N/A   Clear
11:15 PM 59.0 °F 30.2 °F 34% 30.29 in 10.0 mi NE 8.1 mph - N/A   Clear
11:35 PM 62.6 °F 32.0 °F 32% 30.29 in 10.0 mi NE 9.2 mph - N/A   Clear
11:55 PM 60.8 °F 30.2 °F 31% 30.29 in 10.0 mi NE 11.5 mph - N/A   Clear